Location: St. Louis
(38.6270°N, 90.1994°W)
Time: 05:21:52
(UTC-06:00)

Explorer 7 - Pass Details

Date: 09 December 2021
Orbit: 483 x 674 km, 50.3° (Epoch: 19 January)

Event Time Altitude Azimuth Distance (km) Brightness Sun altitude
Exits shadow 04:25:00 14° 38° (NE) 1,641 9.5 -30.9°
Drops below altitude 10° 04:25:35 10° 41° (NE) 1,848 9.9 -30.7°
Sets 04:27:57 0° 50° (NE) 2,730 11.0 -30.3°
